[[{"header":{"parameterUnit":"m.s-1","parameterCategory":1,"la1":30.2991,"la2":30.254,"lo1":-89.0895,"lo2":-89.0444,"dy":0.0017,"dx":0.0017,"nx":28,"ny":28,"refTime":"2025-06-14T09:00:00:Z","depth":0,"parameterNumber":2,"parameterNumberName":"U-component_of_WINDS"},"data":[0,0,0,0,0,0,0,0,0,0,0,0,0,0,0,0,0,0,0,0,0,0,0,0,0,0,0,0,0,0,0,0,0,0,0,0,0,0,0,0,0,0,0,0,0,0,0,0,0,0,0,0,0,0,0,0,0,0,0.5549,0.5548,0,0.5486,0.5486,0.5485,0.5404,0.5403,0.5401,0.54,0.5337,0.5337,0.5336,0,0,0,0,0,0,0,0,0,0,0,0,0,0.5599,0.5598,0.5549,0.5548,0.5547,0.5487,0.5486,0.5485,0.5404,0.5403,0.5401,0.5399,0.5337,0.5337,0.5336,0,0,0,0,0,0,0,0,0,0,0,0,0,0.5561,0.5598,0.5549,0.55,0.5495,0.5487,0.5486,0.5485,0.5405,0.5403,0.5401,0.5399,0.5337,0.5337,0.5336,0.5372,0,0,0.5334,0.5334,0,0,0,0,0,0,0,0,0.5563,0.5559,0.5508,0.5503,0.5497,0.5451,0.548,0.5447,0.5405,0.5439,0.54,0.5398,0.5377,0.5373,0.5365,0.5369,0.5366,0.5334,0.5334,0.5333,0.5333,0,0,0,0,0,0,0,0.5566,0.5561,0.5524,0.5507,0.5501,0.5481,0.5473,0.5473,0.542,0.5436,0.543,0.5423,0.5373,0.5366,0.5363,0.5365,0.5334,0.5334,0.5333,0.5333,0.5394,0.5396,0,0,0,0,0,0,0.5576,0.5564,0.5526,0.5522,0.5526,0.5482,0.5473,0.5468,0.5419,0.541,0.5425,0.542,0.5368,0.5364,0.5361,0.5398,0.5333,0.5333,0.5332,0.5392,0.5394,0.5396,0,0,0,0,0,0,0.5577,0.5573,0.5529,0.5541,0.5534,0.5483,0.5478,0.5468,0.546,0.5411,0.5401,0.5427,0.5367,0.5362,0.5369,0.5395,0.5333,0.5332,0.5389,0.5393,0.5395,0.5475,0,0,0,0,0,0,0.5579,0.5574,0.5587,0.5542,0.5534,0.5539,0.5479,0.5468,0.5459,0.5452,0.5411,0.5402,0.5365,0.5371,0.5369,0.5393,0.5331,0.5387,0.5391,0.5394,0.547,0.548,0.5489,0,0,0,0,0,0.5581,0.5612,0.5588,0.5584,0.5549,0.554,0.5535,0.5491,0.5462,0.5474,0.5443,0.5404,0.5393,0.5372,0.5369,0.5394,0.5385,0.539,0.5394,0.5466,0.5478,0.5489,0,0,0,0,0,0,0.5662,0.5606,0.5578,0.5596,0.5574,0.5527,0.5541,0.5506,0.5492,0.5485,0.5431,0.5423,0.5437,0.5416,0.5394,0.5425,0.5383,0.5387,0.5438,0.545,0.546,0.5464,0.5331,0,0,0,0,0,0.5682,0.5679,0.563,0.5651,0.5641,0.5593,0.5588,0.5555,0.553,0.552,0.5489,0.5466,0.5457,0.5452,0.5442,0.5466,0.5456,0.5482,0.5492,0.55,0.5504,0.5515,0.5526,0.5411,0.5411,0.5411,0,0,0.5723,0.5692,0.5694,0.5666,0.5645,0.5643,0.5586,0.5587,0.5585,0.552,0.5525,0.5502,0.5472,0.5489,0.5494,0.5472,0.5533,0.5506,0.5513,0.5512,0.5521,0.5532,0.5541,0.5414,0.5414,0.5413,0,0,0.5798,0.5774,0.5788,0.5768,0.5736,0.5704,0.5707,0.5665,0.5647,0.5651,0.5602,0.56,0.5586,0.5567,0.5555,0.5621,0.5585,0.562,0.5671,0.5682,0.5691,0.5698,0.5722,0.5731,0.5624,0.5624,0.5624,0,0.5853,0.5848,0.58,0.5804,0.5793,0.5734,0.5747,0.573,0.5697,0.5691,0.5666,0.5647,0.5623,0.5633,0.5649,0.5642,0.5644,0.5624,0.5693,0.5701,0.5707,0.5728,0.5737,0.5628,0.5628,0.5628,0.5627,0,0.5918,0.5915,0.5931,0.5899,0.589,0.5899,0.5852,0.5848,0.5817,0.5788,0.5792,0.5761,0.5743,0.5743,0.5713,0.5749,0.5736,0.5703,0.566,0.5723,0.5742,0.575,0.5635,0.5633,0.5632,0.5631,0,0,0.6042,0.5983,0.5989,0.5974,0.5934,0.5931,0.5937,0.5919,0.5917,0.5896,0.5899,0.5888,0.5857,0.5844,0.5811,0.5821,0.5875,0.5787,0.5785,0.5804,0.5912,0.5937,0.5947,0.585,0.5852,0.5853,0.5915,0,0.6108,0.6114,0.6071,0.6089,0.6086,0.6029,0.6035,0.6011,0.5984,0.5977,0.5946,0.594,0.59,0.5891,0.5898,0.5867,0.5896,0.5862,0.5853,0.5853,0.5862,0.5957,0.5984,0.6044,0.5922,0.5923,0.5924,0,0.6186,0.6169,0.6187,0.6145,0.6142,0.6148,0.6127,0.6121,0.6093,0.6072,0.6058,0.6019,0.6022,0.5981,0.5984,0.5961,0.5955,0.5939,0.594,0.5937,0.5892,0.5957,0.6062,0.6071,0.5935,0.5935,0.5934,0,0.6274,0.6255,0.6263,0.6252,0.6204,0.6209,0.6189,0.6159,0.615,0.6132,0.6126,0.6109,0.61,0.6087,0.6045,0.6019,0.6053,0.6008,0.6035,0.6037,0.6045,0.6045,0.615,0.6042,0.6042,0.6041,0.6041,0,0.6352,0.6365,0.6301,0.6307,0.6319,0.6269,0.6283,0.6258,0.6231,0.623,0.6181,0.6181,0.6125,0.6119,0.6086,0.6093,0.609,0.6073,0.6064,0.6077,0.6079,0.6072,0.6067,0.6044,0.6043,0.6043,0.6042,0,0.6452,0.641,0.6415,0.6369,0.6358,0.6369,0.633,0.6333,0.6302,0.6301,0.6298,0.625,0.624,0.6197,0.6177,0.6155,0.6173,0.6156,0.6183,0.6177,0.6206,0.6204,0.631,0.6321,0.6207,0.6208,0.6209,0,0.6505,0.6513,0.6468,0.6464,0.6446,0.644,0.6431,0.6382,0.6374,0.6342,0.6349,0.6335,0.6321,0.6308,0.6271,0.6256,0.6237,0.6276,0.6235,0.6247,0.6237,0.6237,0.6238,0.6284,0.6286,0.6287,0.6288,0,0.6602,0.6581,0.6569,0.6551,0.6541,0.6524,0.6504,0.6504,0.6449,0.6443,0.6432,0.6422,0.6401,0.6387,0.6366,0.6345,0.6308,0.6301,0.6307,0.632,0.6335,0.6327,0.6206,0.6299,0.6298,0.6297,0.6297,0.6296,0.6679,0.6684,0.6653,0.6642,0.6622,0.6604,0.6604,0.6573,0.6563,0.6542,0.6514,0.6507,0.6478,0.6444,0.6427,0.642,0.6399,0.6407,0.6409,0.6412,0.6418,0.6337,0.6416,0.6416,0.6416,0.6415,0.6415,0,0.6774,0.6751,0.6741,0.6714,0.6706,0.6671,0.6647,0.6642,0.6636,0.6612,0.6599,0.6587,0.6574,0.6536,0.6519,0.6521,0.6503,0.6518,0.6517,0.6513,0.6438,0.6435,0.6533,0.6533,0.6533,0.6533,0.6533,0.6533,0.6822,0.6827,0.6803,0.6798,0.6775,0.6767,0.6756,0.674,0.672,0.6708,0.6697,0.6672,0.6643,0.6623,0.6609,0.6599,0.6594,0.6615,0.6599,0.653,0.6518,0.6508,0.6504,0.6615,0.6615,0.6673,0.6674,0.6674]},{"header":{"parameterUnit":"m.s-1","parameterCategory":1,"la1":30.2991,"la2":30.254,"lo1":-89.0895,"lo2":-89.0444,"dy":0.0017,"dx":0.0017,"nx":28,"ny":28,"refTime":"2025-06-14T09:00:00:Z","depth":0,"parameterNumber":3,"parameterNumberName":"V-component_of_WINDS"},"data":[0,0,0,0,0,0,0,0,0,0,0,0,0,0,0,0,0,0,0,0,0,0,0,0,0,0,0,0,0,0,0,0,0,0,0,0,0,0,0,0,0,0,0,0,0,0,0,0,0,0,0,0,0,0,0,0,0,0,2.5098,2.5099,0,2.5151,2.5152,2.5153,2.51,2.5098,2.5096,2.5094,2.5149,2.5152,2.5156,0,0,0,0,0,0,0,0,0,0,0,0,0,2.4951,2.4954,2.5098,2.5099,2.5099,2.5151,2.5152,2.5153,2.51,2.5098,2.5095,2.5093,2.5148,2.5152,2.5156,0,0,0,0,0,0,0,0,0,0,0,0,0,2.5011,2.4955,2.5098,2.5079,2.5078,2.5151,2.5152,2.5153,2.5101,2.5098,2.5094,2.5092,2.5146,2.5151,2.5156,2.5251,0,0,2.5172,2.5174,0,0,0,0,0,0,0,0,2.5007,2.5016,2.5082,2.5081,2.508,2.5116,2.512,2.5186,2.5101,2.5092,2.5094,2.509,2.514,2.5146,2.5163,2.5253,2.5255,2.5173,2.5176,2.5178,2.5179,0,0,0,0,0,0,0,2.5003,2.5013,2.5119,2.5083,2.5081,2.5068,2.5073,2.5132,2.5133,2.5093,2.5089,2.5096,2.5139,2.5158,2.5164,2.5256,2.5172,2.5177,2.518,2.5182,2.5425,2.5428,0,0,0,0,0,0,2.5001,2.501,2.5117,2.5121,2.5035,2.5074,2.5079,2.5107,2.5132,2.5133,2.5099,2.5093,2.5151,2.5158,2.5165,2.5276,2.5178,2.5183,2.5186,2.5421,2.5425,2.5429,0,0,0,0,0,0,2.4998,2.5011,2.5115,2.5065,2.5077,2.5079,2.5111,2.511,2.5128,2.5137,2.5137,2.5118,2.5149,2.5158,2.5229,2.5277,2.5185,2.519,2.5417,2.5422,2.5427,2.5498,0,0,0,0,0,0,2.4994,2.501,2.5046,2.5066,2.508,2.5179,2.5114,2.5113,2.5137,2.5131,2.5154,2.5155,2.5147,2.5222,2.5234,2.5282,2.5194,2.5413,2.542,2.5426,2.5492,2.5505,2.5517,0,0,0,0,0,2.4989,2.5065,2.5048,2.5062,2.5125,2.5182,2.519,2.5178,2.5141,2.5177,2.5182,2.5155,2.527,2.523,2.5243,2.5293,2.541,2.5418,2.5425,2.5486,2.5502,2.5516,0,0,0,0,0,0,2.5052,2.5067,2.5049,2.5133,2.5156,2.5173,2.5218,2.5196,2.523,2.5223,2.5207,2.5213,2.5288,2.5298,2.5253,2.5385,2.5334,2.5345,2.5376,2.5391,2.5404,2.5399,2.5198,0,0,0,0,0,2.5075,2.512,2.5131,2.5204,2.5217,2.5215,2.524,2.5229,2.5252,2.5262,2.5272,2.5296,2.5337,2.5365,2.5404,2.5493,2.5497,2.5534,2.5546,2.5557,2.5566,2.5612,2.5629,2.5454,2.5454,2.5454,0,0,2.5124,2.5138,2.5168,2.5217,2.5234,2.528,2.5224,2.5276,2.531,2.527,2.5337,2.5345,2.5371,2.5451,2.5487,2.5462,2.5615,2.5566,2.5574,2.5578,2.5622,2.5638,2.5653,2.5459,2.5458,2.5457,0,0,2.5237,2.5253,2.5315,2.5332,2.5358,2.5356,2.5371,2.539,2.5394,2.5461,2.5431,2.5472,2.5544,2.5563,2.5582,2.5701,2.5676,2.5714,2.5779,2.5824,2.5838,2.585,2.5892,2.5907,2.5723,2.5723,2.5723,0,2.5296,2.5364,2.535,2.5403,2.5425,2.539,2.5452,2.547,2.5508,2.5523,2.5495,2.5583,2.5598,2.5681,2.571,2.5727,2.5743,2.5711,2.5837,2.5849,2.586,2.59,2.5915,2.5728,2.5727,2.5727,2.5726,0,2.5434,2.5482,2.5529,2.5564,2.5592,2.565,2.5643,2.5673,2.5659,2.5661,2.5729,2.5745,2.5786,2.5805,2.5793,2.5886,2.587,2.584,2.5788,2.5882,2.5918,2.5933,2.5734,2.5732,2.5731,2.573,0,0,2.5588,2.5614,2.5631,2.5646,2.5671,2.5708,2.5764,2.5803,2.5828,2.5855,2.59,2.5962,2.5933,2.5955,2.5944,2.5984,2.6076,2.5949,2.5949,2.5971,2.6179,2.6201,2.6218,2.606,2.6062,2.6065,2.6176,0,2.5701,2.5797,2.5785,2.5877,2.5921,2.5887,2.5936,2.5956,2.5958,2.5995,2.5998,2.6041,2.6001,2.6014,2.6052,2.6057,2.6117,2.6048,2.6101,2.6104,2.6095,2.6238,2.6261,2.6366,2.619,2.6193,2.6195,0,2.5846,2.5876,2.5972,2.5989,2.6007,2.605,2.6084,2.6121,2.6143,2.6141,2.6165,2.6147,2.6202,2.615,2.6225,2.6179,2.62,2.6205,2.6209,2.6213,2.6154,2.6244,2.6399,2.6414,2.6217,2.6215,2.6214,0,2.5947,2.6013,2.6078,2.6092,2.6114,2.6145,2.6155,2.6174,2.6198,2.6228,2.6243,2.6279,2.6299,2.6327,2.6319,2.6282,2.6396,2.6344,2.6396,2.6397,2.6422,2.642,2.6581,2.6437,2.6436,2.6436,2.6436,0,2.6074,2.6134,2.6124,2.6164,2.623,2.6215,2.628,2.6287,2.6304,2.6344,2.6318,2.6357,2.6344,2.6382,2.6376,2.6439,2.6448,2.6449,2.6446,2.6451,2.645,2.6464,2.6456,2.644,2.6439,2.6439,2.6438,0,2.6199,2.6194,2.6263,2.6277,2.6282,2.633,2.6342,2.6379,2.6379,2.6431,2.6442,2.6442,2.6485,2.648,2.6529,2.6525,2.6602,2.6592,2.6595,2.6592,2.6645,2.6639,2.6819,2.6841,2.6684,2.6685,2.6686,0,2.628,2.6325,2.6343,2.6368,2.638,2.6421,2.6445,2.6432,2.6458,2.6485,2.6519,2.656,2.6592,2.6662,2.6667,2.6703,2.6693,2.6753,2.6698,2.6701,2.6692,2.6689,2.6693,2.6764,2.6765,2.6767,2.6768,0,2.6423,2.6418,2.6453,2.6487,2.6516,2.6542,2.6566,2.6588,2.6577,2.6608,2.6651,2.6676,2.6724,2.6765,2.6799,2.681,2.6787,2.6785,2.6799,2.6804,2.6803,2.6803,2.6623,2.6781,2.678,2.6779,2.6778,2.6778,2.6528,2.6565,2.6584,2.6623,2.6639,2.6662,2.6697,2.6701,2.6737,2.6775,2.6765,2.6814,2.6834,2.6877,2.6891,2.6929,2.6907,2.6928,2.6933,2.6938,2.6944,2.6798,2.6936,2.6935,2.6935,2.6935,2.6934,0,2.6669,2.6678,2.6715,2.6748,2.6779,2.6754,2.6779,2.6807,2.685,2.687,2.6901,2.695,2.6989,2.6996,2.7033,2.7062,2.7052,2.7072,2.7069,2.7072,2.6962,2.6945,2.7078,2.7078,2.7078,2.7078,2.7078,2.7078,2.6746,2.6808,2.6805,2.6875,2.6884,2.6931,2.6947,2.6967,2.6983,2.7039,2.707,2.7074,2.7089,2.7127,2.7161,2.7162,2.7176,2.72,2.7197,2.7094,2.7079,2.7066,2.705,2.7203,2.7203,2.7303,2.7304,2.7305]}]]